Temp
21 21 21 22 27 28 28 28 29 29 28 28 28 28 27 25 26 27 21 21 22 22 21 21 21 21 21 21 21 21 21 21 21 21 21 21 22 21 22 21 22 21 21 21 21 21 21 22 22
21 21 21 24 28 30 29 29 28 28 27 28 27 27 26 24 24 22 22 21 22 21 21 21 21 21 21 21 21 21 21 21 21 21 22 22 22 21 22 21 21 21 21 21 21 21 22 22 22
22 21 24 26 27 28 29 28 28 28 28 28 26 27 26 24 23 23 22 21 21 21 21 21 21 21 21 21 22 21 21 21 22 22 22 22 21 21 21 22 22 22 22 22 22 21 21 22 22
22 22 25 28 28 29 28 28 28 28 28 27 27 25 25 24 23 22 21 21 21 21 21 21 21 21 21 21 22 22 22 22 22 22 23 22 22 22 21 22 21 22 22 22 22 21 22 22 22
22 24 28 29 28 29 28 29 29 28 27 26 26 24 24 23 22 21 21 21 22 21 21 21 21 21 21 21 21 22 22 22 22 22 22 22 22 21 21 22 21 22 22 22 21 22 22 22 22
25 25 29 28 28 28 28 29 28 28 27 26 26 25 22 21 22 22 21 21 22 22 21 21 21 21 21 21 21 21 22 22 23 23 22 21 22 22 22 22 21 22 22 22 22 22 22 23 23
24 27 26 28 28 28 28 29 28 27 27 26 26 25 22 22 22 22 21 21 21 21 21 21 21 21 21 21 21 21 21 21 22 23 22 22 22 21 22 21 21 21 22 23 23 23 23 23 22
24 26 25 27 28 28 29 29 28 28 26 27 27 25 23 22 22 21 21 21 21 21 21 21 21 21 21 21 21 21 21 22 22 22 22 22 22 22 21 21 21 22 23 23 23 23 23 23 23
25 27 25 27 27 27 29 28 29 28 27 27 27 26 25 22 22 22 22 21 21 21 21 21 21 21 21 21 21 21 21 21 22 21 21 22 22 22 22 22 22 23 23 23 24 24 23 24 23
26 27 27 27 27 27 28 29 28 28 27 26 24 24 23 22 22 23 23 23 22 22 21 21 22 21 21 22 21 21 21 21 22 21 21 21 21 21 22 22 22 23 23 24 24 24 24 24 24
27 27 27 27 27 27 28 29 29 29 27 27 25 24 23 22 23 23 23 22 22 22 22 21 21 21 22 22 21 21 21 21 21 21 21 21 21 21 22 22 22 22 24 23 24 24 24 24 24
28 26 27 27 27 28 27 28 29 29 29 28 26 25 24 23 23 23 23 22 22 22 22 21 21 21 21 21 21 21 21 21 21 21 21 22 21 22 21 22 22 23 24 24 25 24 25 25 24
28 27 27 26 27 27 27 28 29 28 28 28 26 25 25 25 24 23 23 22 22 21 22 21 21 20 20 20 21 21 21 21 21 21 22 22 21 21 22 22 22 23 24 24 25 25 25 25 24
28 27 26 25 26 27 27 28 28 29 28 27 25 25 26 25 24 23 23 22 22 22 22 21 21 20 20 21 21 21 21 20 21 21 21 22 21 22 22 23 23 24 24 25 25 25 25 25 25
28 27 27 26 25 27 27 28 28 28 28 27 26 26 26 25 24 24 24 23 22 22 22 21 21 20 20 20 21 21 21 21 21 21 22 22 22 22 23 23 24 24 24 25 24 25 25 25 26
29 29 29 26 26 28 29 29 28 28 28 27 27 26 26 26 25 25 24 24 23 23 22 21 21 21 20 20 20 21 21 21 21 21 21 22 22 23 23 23 24 24 24 24 25 25 25 26 26
30 29 29 29 28 27 28 28 28 28 28 27 27 27 27 26 26 25 24 24 24 23 22 21 21 21 21 20 20 21 21 21 21 21 21 23 23 23 23 23 23 24 24 24 25 25 25 26 26
30 30 29 29 30 26 28 28 29 28 28 28 28 28 27 27 27 26 25 25 24 23 22 22 21 21 21 20 21 20 21 21 21 21 22 22 22 23 23 23 24 25 24 24 24 25 25 25 25
30 30 30 31 31 29 30 30 30 28 28 28 28 28 28 28 28 27 26 25 25 24 22 22 21 21 21 21 21 21 21 21 22 22 22 23 23 23 23 23 24 25 25 25 25 25 25 26 26
31 29 30 30 31 30 31 30 31 29 29 29 29 29 29 29 29 27 26 25 25 24 23 22 22 22 22 21 21 22 22 22 22 22 22 23 23 23 23 24 24 25 24 25 25 25 25 26 25
30 30 29 29 31 31 31 31 29 29 29 29 30 30 29 29 29 28 27 26 26 25 23 23 23 22 23 22 21 21 21 22 22 22 23 23 23 24 24 24 24 25 25 25 25 25 25 26 25
29 30 30 30 30 31 31 31 31 31 30 29 30 30 30 29 29 29 27 26 26 25 25 24 23 23 22 22 22 22 24 24 24 23 23 23 24 24 24 24 24 25 24 25 25 25 25 25 26
28 28 29 29 30 30 31 31 33 29 30 30 30 30 30 30 30 30 28 27 26 26 25 24 23 23 23 22 22 23 24 24 24 24 23 23 23 24 23 23 23 24 24 25 26 26 25 25 25
27 28 28 27 30 29 31 31 33 33 33 33 32 31 31 31 31 30 29 28 27 26 25 24 23 23 23 23 22 22 23 24 24 24 24 24 24 24 24 24 25 25 25 25 25 25 26 25 25
28 29 29 29 29 30 29 30 32 33 32 32 33 33 32 31 31 30 30 28 27 26 25 25 23 23 22 22 22 22 23 23 23 23 24 24 24 24 24 25 25 24 25 25 25 25 25 25 25
26 26 27 26 28 30 27 29 32 32 32 31 31 31 32 33 32 31 31 29 27 26 25 25 23 23 23 22 23 22 23 24 24 24 24 24 25 25 25 26 26 26 25 25 25 25 25 25 24
26 26 25 26 24 26 29 30 31 32 30 29 29 29 29 29 31 32 31 29 28 27 26 25 24 23 23 23 23 22 22 23 24 24 25 24 24 25 25 26 26 26 25 25 25 24 25 25 24
26 25 26 25 25 26 28 26 30 28 27 27 27 27 27 27 29 30 32 30 28 27 27 25 25 24 24 24 23 23 23 23 23 24 25 24 24 26 24 25 25 25 25 25 25 24 24 23 24
24 25 24 24 24 26 26 28 28 26 26 26 27 27 27 27 27 28 32 30 29 28 27 26 26 25 24 23 23 23 23 23 23 24 24 25 25 25 25 25 25 25 24 25 24 24 24 23 24
23 23 24 24 24 24 24 26 30 27 27 27 27 26 26 26 27 26 31 31 29 28 27 27 26 25 24 24 23 23 23 23 23 23 24 24 25 26 26 26 25 25 24 25 23 24 25 24 24
Height
781 781 781 780 789 786 799 800 784 791 793 787 791 796 800 805 808 819 815 817 820 824 825 827 829 830 830 831 832 833 834 834 837 839 840 842 843 843 844 845 845 846 846 847 847 847 846 847 847
782 782 782 779 792 796 801 789 795 792 791 788 794 798 803 813 809 813 816 819 822 825 827 829 830 831 832 833 835 836 836 838 840 841 843 845 845 847 848 849 849 849 849 849 849 849 849 850 850
781 783 784 785 795 807 802 794 794 792 789 792 799 797 802 812 811 814 817 821 824 826 828 830 831 833 834 836 837 838 840 842 844 845 845 848 849 850 851 851 852 852 852 852 853 852 852 852 852
782 784 783 791 800 794 794 793 791 794 793 793 796 807 807 810 814 817 820 824 827 829 831 832 834 835 836 838 839 841 844 846 848 849 849 850 851 852 854 854 855 855 855 855 855 855 854 854 854
783 782 788 795 800 793 791 789 789 796 798 799 799 813 813 816 816 819 823 827 829 831 833 835 836 837 838 840 842 844 847 848 850 851 852 852 853 854 855 857 857 857 857 857 858 857 857 856 856
784 783 795 806 805 796 792 790 791 796 799 802 806 810 818 818 818 823 826 829 832 834 835 837 838 839 841 843 844 846 849 851 852 853 854 855 855 857 859 859 859 859 859 859 860 860 860 859 858
788 788 806 802 805 802 797 787 794 798 801 805 804 814 820 820 822 825 828 831 834 836 838 839 841 842 843 845 847 848 850 853 854 854 856 857 858 859 860 860 861 861 861 862 862 862 862 861 860
785 789 810 803 804 806 793 791 793 796 805 799 802 815 822 820 823 826 830 833 835 838 839 840 841 843 846 847 848 851 854 855 856 857 858 859 860 862 862 862 863 863 864 865 865 865 864 863 863
783 796 812 805 803 803 791 796 792 793 799 801 802 806 812 820 825 827 830 834 837 839 840 841 842 844 846 848 851 853 856 857 858 859 860 862 863 864 865 864 865 865 866 867 867 866 866 865 864
789 797 803 796 796 799 793 791 794 799 802 808 809 811 817 822 825 827 829 832 836 839 841 843 844 846 848 850 852 855 857 859 860 861 862 863 864 865 867 867 867 868 868 869 868 868 867 866 866
788 798 792 792 789 789 792 793 790 797 806 803 808 812 818 823 825 827 830 832 834 838 842 844 846 847 850 852 854 856 858 859 860 861 863 863 865 866 868 869 870 871 871 871 870 869 868 866 865
790 792 789 792 788 789 793 791 795 794 796 794 804 811 816 822 824 826 829 832 835 838 841 844 846 848 849 852 855 856 857 859 861 862 863 864 866 867 869 871 872 872 872 872 871 870 868 867 866
788 790 791 791 790 791 790 793 794 798 795 798 806 813 815 819 823 827 830 833 836 838 840 844 846 848 849 851 853 856 857 860 861 862 863 865 867 869 870 872 873 873 873 873 872 871 869 868 867
784 788 794 798 797 795 797 792 792 792 795 802 808 810 814 817 822 826 829 832 834 837 840 844 846 848 850 852 853 856 857 860 862 864 865 866 868 869 871 872 873 874 874 873 873 871 870 870 869
786 797 794 798 798 796 792 800 796 791 793 801 807 811 814 817 821 823 826 829 832 836 839 842 846 848 849 851 853 855 857 861 862 864 865 867 868 870 871 872 873 874 874 874 873 873 872 871 870
792 790 803 800 797 793 790 806 793 792 794 800 803 809 813 817 818 822 825 827 831 834 838 841 844 847 849 851 853 855 857 859 862 864 866 867 868 870 871 872 874 875 875 875 874 874 874 873 871
796 811 808 801 792 797 797 803 792 792 794 800 802 805 809 813 817 820 823 825 828 831 836 839 842 845 848 851 853 855 856 858 860 863 865 866 868 869 871 873 874 875 876 876 875 876 875 874 872
815 810 809 806 794 800 799 797 792 792 793 795 799 802 804 808 811 815 820 823 826 830 833 838 841 844 846 850 852 854 856 857 859 861 863 866 868 869 871 873 874 875 876 877 877 876 876 875 873
802 808 809 798 790 797 794 791 787 790 791 794 796 800 801 802 805 812 816 820 824 828 832 834 838 841 844 847 850 852 854 856 857 859 861 864 867 869 871 873 874 875 876 877 877 877 877 876 874
802 812 809 799 791 796 790 792 779 783 786 785 789 792 795 799 802 806 811 816 819 822 826 830 833 837 840 844 846 849 851 853 855 858 860 863 866 868 870 872 874 875 876 877 877 877 878 877 875
807 810 811 813 797 790 791 792 789 782 782 784 783 785 788 789 794 800 804 809 812 817 821 824 827 832 835 840 844 846 849 851 853 855 858 861 864 866 868 870 872 873 874 876 876 877 877 876 875
816 802 805 804 805 811 791 811 789 780 782 781 780 781 782 783 786 791 797 801 806 809 813 818 822 826 831 835 839 842 844 847 849 852 855 858 861 864 866 868 870 871 872 874 875 875 875 875 875
813 803 806 804 805 807 797 806 785 784 784 778 772 770 771 774 779 782 786 790 795 803 808 812 816 821 826 830 834 837 841 843 846 850 852 855 858 861 863 866 868 869 870 871 873 874 874 874 874
807 805 807 810 805 816 796 800 785 781 772 765 764 766 766 767 770 775 781 787 791 796 801 806 811 814 820 825 829 832 836 840 843 846 849 852 854 857 859 862 865 867 868 869 870 871 871 872 873
806 809 821 822 820 810 799 802 783 768 767 765 763 759 757 758 760 765 771 776 781 786 792 799 804 808 814 819 824 827 831 835 838 842 845 847 850 852 854 858 861 863 865 866 867 868 869 870 871
820 820 827 841 824 809 806 802 778 764 764 767 765 761 756 751 754 755 756 762 770 777 782 788 794 801 806 812 817 821 826 830 834 837 840 842 845 847 850 853 856 859 861 863 864 865 866 866 867
821 826 824 825 833 829 801 786 771 763 766 768 766 764 763 759 750 747 751 754 758 766 772 778 784 791 798 803 810 815 820 825 828 831 834 838 840 843 845 848 850 853 856 858 860 861 861 861 862
818 819 827 828 839 835 807 810 788 781 782 774 769 765 763 759 751 744 739 745 750 755 761 770 776 780 787 795 801 807 812 817 822 826 828 832 835 837 841 843 846 848 850 852 854 856 857 857 857
824 824 827 826 829 827 825 800 779 787 784 780 771 769 763 756 748 741 729 735 744 751 758 762 769 774 781 788 794 800 805 810 815 819 822 826 830 833 835 838 840 843 844 846 847 849 851 851 852
824 827 824 829 834 826 829 803 767 779 776 776 770 765 760 756 747 741 726 729 736 741 748 752 758 765 770 777 783 789 796 803 808 811 815 819 823 826 829 831 834 836 837 839 841 843 845 846 846
Wind_Speed
8 5 2 1 1 2 4 4 2 12 8 2 13 2 6 5 1 2 8 8 18 15 12 11 11 10 9 10 11 14 14 17 21 17 15 15 16 14 15 15 17 17 18 17 16 16 16 15 15
8 3 1 1 3 5 5 5 9 4 7 16 10 8 3 4 4 9 10 14 18 15 12 11 12 11 9 10 11 13 15 22 20 15 17 17 14 15 15 15 15 16 15 15 14 14 14 13 12
7 1 2 2 3 3 4 7 11 14 10 6 5 6 3 3 8 14 10 18 18 15 12 11 10 9 9 10 11 14 17 20 18 18 16 13 14 15 15 15 14 13 15 14 14 14 14 14 15
4 1 2 3 8 5 4 10 12 11 6 5 9 8 5 1 12 8 19 18 17 15 12 12 10 9 9 10 11 14 15 16 15 14 13 13 14 14 15 14 12 12 13 13 13 12 12 13 13
2 1 2 5 8 5 9 11 7 4 4 6 1 6 8 4 8 19 19 17 18 16 14 12 11 9 9 10 10 10 11 12 12 12 11 11 12 12 13 12 9 10 11 11 10 11 12 11 11
0 1 2 5 6 7 6 4 5 7 7 8 10 10 3 8 16 19 17 17 16 15 14 12 12 10 8 9 9 9 10 11 10 10 10 10 11 11 10 9 9 9 9 9 9 11 12 12 11
2 2 3 7 9 4 4 4 4 6 8 7 9 7 4 9 16 18 16 16 14 13 12 11 10 9 10 8 8 10 10 11 10 8 9 10 10 11 9 9 9 10 9 9 9 11 11 11 11
2 2 2 2 4 5 5 3 10 8 5 11 6 5 8 12 18 17 16 15 13 13 11 10 11 11 10 10 9 9 9 8 9 7 8 9 9 9 11 10 10 10 10 8 8 8 8 10 10
2 2 3 3 3 5 5 5 3 3 11 3 2 9 14 21 19 18 16 14 12 12 11 11 11 11 10 9 9 9 9 9 8 6 7 7 8 8 9 9 9 9 8 6 5 5 7 9 10
2 2 3 2 4 5 1 7 5 6 9 4 12 15 22 21 21 19 18 17 15 13 12 11 11 12 11 9 8 8 8 8 7 6 6 5 6 7 7 7 8 7 6 5 4 5 7 9 8
1 3 6 3 7 4 3 8 3 12 6 6 17 19 20 20 18 18 18 17 18 16 13 12 12 12 12 11 10 9 8 8 7 7 5 4 5 5 5 5 5 4 5 3 4 6 7 9 8
2 4 3 3 4 3 6 4 5 10 2 10 18 19 20 17 18 18 18 17 17 17 16 14 14 13 12 11 10 10 9 8 6 5 6 5 5 5 5 4 4 5 4 3 5 7 9 9 10
1 3 4 4 6 5 1 5 2 11 8 18 18 19 17 16 17 16 17 16 16 17 18 17 15 14 12 12 12 12 10 9 6 7 7 7 4 5 5 4 4 4 3 3 5 8 9 11 9
3 3 4 3 1 2 2 2 6 9 15 18 18 18 15 16 17 15 17 18 18 18 17 16 16 15 13 12 14 12 11 8 8 7 6 7 5 5 5 4 3 2 3 4 7 7 10 9 8
6 2 2 6 1 1 4 3 5 13 17 19 17 15 14 15 16 18 20 20 20 19 17 17 16 15 15 14 14 12 11 9 8 8 9 8 6 6 6 4 2 1 4 6 6 8 9 9 8
2 2 4 4 1 2 1 1 6 15 18 18 19 16 14 15 19 17 17 18 19 18 20 18 17 16 17 15 13 12 11 10 9 9 9 10 8 7 6 3 1 2 4 6 6 9 9 8 7
2 3 5 3 4 1 3 1 3 14 15 17 17 17 15 15 17 19 18 18 19 20 20 19 19 18 18 16 14 13 11 11 11 11 10 12 10 9 6 3 2 3 5 5 7 7 9 8 9
4 3 2 4 2 4 7 12 3 12 15 16 17 17 17 16 18 22 21 20 19 20 20 20 19 18 20 15 15 12 10 10 10 11 11 12 10 10 8 4 4 5 5 4 5 9 8 8 10
2 1 6 5 3 3 10 16 11 13 15 15 17 17 17 18 21 22 23 23 21 20 20 22 21 20 18 17 16 14 14 12 11 12 13 13 12 11 9 5 5 5 4 4 5 8 7 6 10
3 1 2 4 2 4 10 14 12 15 20 20 20 20 20 18 17 22 23 24 25 25 25 23 23 23 24 18 17 14 15 13 12 11 14 15 15 14 10 8 6 6 5 5 5 7 5 5 8
2 4 2 4 7 4 7 5 3 6 14 17 19 19 20 21 21 19 25 27 27 27 26 27 28 26 26 22 16 13 11 8 11 11 12 15 17 16 14 11 9 8 7 5 5 5 3 5 4
4 2 7 9 7 4 4 5 4 6 13 18 20 20 21 22 20 19 25 28 29 30 29 29 30 30 27 25 20 21 18 16 15 14 13 13 17 17 17 15 12 10 7 6 5 5 4 4 4
2 11 8 8 7 4 6 5 2 2 8 16 19 23 23 23 23 23 27 32 34 31 30 30 31 30 27 28 25 23 19 18 15 15 15 16 16 18 16 16 13 11 8 8 8 7 6 4 3
8 3 1 2 4 10 11 8 8 6 7 6 14 17 21 23 24 24 29 30 30 31 31 29 29 34 31 30 29 26 23 19 16 16 17 17 18 18 21 20 18 14 11 11 9 9 8 7 6
10 3 3 4 7 12 4 6 9 4 2 5 12 12 17 22 23 23 24 30 32 34 33 31 31 31 30 30 29 29 28 25 21 19 18 17 17 17 20 23 20 15 15 13 12 11 9 8 8
5 3 2 4 4 4 1 6 2 1 7 11 13 13 15 13 18 24 26 33 34 36 36 36 34 34 33 32 33 33 31 28 25 22 19 18 18 18 22 25 24 22 19 17 15 13 12 12 11
2 2 3 4 0 5 5 6 9 2 10 18 19 18 18 18 15 21 26 35 35 36 38 38 36 37 36 36 35 33 33 31 27 24 23 19 19 18 22 23 24 24 23 21 19 16 15 15 14
3 2 4 3 3 5 4 5 7 9 17 20 23 24 22 20 17 19 20 31 36 39 39 38 39 39 40 39 36 35 36 35 32 29 28 23 20 20 18 22 21 21 22 22 22 18 16 16 14
1 3 1 1 3 4 5 4 2 9 14 19 22 21 21 23 21 21 17 30 34 34 35 38 38 37 36 35 35 34 33 34 34 31 29 29 26 24 22 23 22 22 21 22 22 23 19 17 17
2 4 3 2 4 3 4 8 11 11 17 17 22 22 24 22 21 21 16 23 29 34 35 38 37 36 37 38 38 37 35 33 32 32 30 29 30 27 26 25 23 23 22 22 20 20 17 18 19
Wind_Direction
133 128 100 257 85 65 75 53 83 120 131 95 150 188 144 48 58 59 130 140 141 143 145 145 137 133 122 109 99 103 105 116 120 120 113 112 103 98 96 94 99 96 96 95 94 93 90 84 79
143 115 307 306 74 91 81 85 117 66 112 122 106 108 86 91 95 126 133 146 144 144 147 144 147 142 129 114 100 96 99 112 117 114 111 108 104 99 97 99 99 99 96 97 93 85 80 76 72
140 349 309 30 68 61 92 99 109 111 125 131 110 67 65 86 121 136 141 144 143 145 149 147 144 142 140 124 109 96 107 111 114 110 105 102 102 105 102 98 96 98 95 84 82 80 78 73 70
168 160 166 54 75 58 73 121 121 122 106 67 114 82 84 80 133 136 141 144 143 142 142 144 139 141 144 131 121 113 112 113 114 113 119 114 107 103 96 103 103 99 92 91 77 72 72 64 60
294 185 65 94 58 66 105 116 114 104 87 115 66 99 104 97 124 137 142 145 143 144 144 140 142 140 144 143 137 138 130 125 121 127 127 107 101 97 98 100 100 97 93 87 75 69 61 59 57
99 291 81 80 88 99 97 81 76 95 102 112 107 111 93 123 137 144 145 146 147 148 150 149 150 148 143 145 151 143 134 126 123 123 117 105 99 94 103 103 97 99 98 93 79 64 57 54 51
86 75 80 92 112 96 130 110 76 108 126 111 126 110 100 138 143 145 146 146 150 151 154 154 155 153 148 155 154 152 142 132 131 129 120 112 108 106 112 100 95 97 106 103 83 63 54 48 44
90 82 68 69 125 103 136 89 122 109 89 121 136 157 161 158 151 146 146 148 153 159 163 165 161 156 155 156 161 154 148 142 147 142 132 119 110 105 103 93 93 97 106 101 82 60 50 41 33
355 85 101 69 125 104 110 141 125 90 138 97 78 152 143 152 153 148 150 156 160 167 173 173 170 161 158 155 158 157 150 149 155 147 131 133 121 111 99 107 96 101 107 98 76 52 32 23 18
39 69 87 87 119 105 205 160 141 129 153 87 102 114 139 153 160 158 165 170 176 177 182 182 179 168 160 161 159 152 152 156 166 157 148 137 128 119 115 113 115 118 114 105 64 29 7 6 358
28 79 153 146 153 124 101 137 144 145 200 183 152 144 151 159 167 168 176 180 181 181 184 187 183 176 170 171 167 161 161 168 172 177 168 152 140 134 125 120 109 104 105 59 22 3 359 359 357
11 90 132 150 147 126 121 136 133 174 309 155 153 154 157 167 174 179 181 181 184 187 186 188 188 187 182 177 173 176 178 183 182 183 184 171 150 157 139 124 126 115 101 49 15 2 9 12 6
332 124 127 141 107 89 194 169 151 184 108 138 149 159 169 175 180 185 185 183 187 193 191 189 190 190 191 185 185 190 193 193 194 198 193 180 164 163 155 153 130 117 79 26 7 0 9 9 4
169 121 137 165 151 144 41 182 185 183 143 147 161 169 178 180 183 183 188 188 191 195 197 194 195 196 198 197 198 196 205 204 206 208 204 196 197 186 179 161 144 86 45 8 358 6 3 358 360
161 101 141 100 194 8 317 173 212 154 160 162 171 180 183 189 185 192 190 192 191 197 196 199 200 200 204 208 210 208 213 211 213 213 209 220 225 219 190 174 149 47 6 1 6 3 351 346 351
311 304 21 52 343 43 339 12 172 165 164 173 175 185 189 195 200 200 196 194 194 193 198 198 199 203 206 213 214 215 214 212 217 218 226 232 229 218 204 192 179 342 344 350 4 355 348 349 355
42 349 27 359 181 15 256 255 137 175 182 177 185 189 192 199 207 208 206 200 194 194 193 198 199 203 204 212 213 215 220 223 227 225 230 227 225 219 210 218 247 317 318 335 351 347 344 345 348
48 347 355 334 359 217 257 259 242 189 193 189 190 198 195 201 209 206 210 207 204 197 196 198 201 204 205 205 213 217 221 224 221 220 220 218 222 219 218 241 263 294 294 312 343 350 350 345 347
99 352 329 331 9 265 266 271 263 199 204 200 199 203 208 206 208 211 207 209 206 204 200 200 201 206 201 203 205 213 221 222 220 216 217 219 216 213 219 234 257 264 279 303 335 349 348 353 356
52 24 321 292 323 284 293 275 275 208 206 205 204 207 208 212 212 209 208 205 207 207 206 204 206 207 209 205 202 206 209 218 215 212 215 215 217 211 219 228 239 251 267 291 311 337 339 341 3
36 295 323 281 319 214 287 274 248 234 223 218 220 218 215 213 212 211 204 205 208 209 208 208 209 211 210 207 200 201 200 209 204 208 208 212 215 216 219 222 231 252 260 264 295 320 315 336 345
300 341 308 288 319 285 358 298 239 218 224 219 223 221 223 218 215 213 208 205 208 212 210 210 211 212 213 209 200 198 199 204 211 209 213 212 218 219 220 223 234 247 252 250 278 289 283 305 317
335 316 279 278 270 295 255 244 241 189 240 231 228 225 226 223 220 216 210 206 207 211 209 210 209 211 209 209 204 202 206 209 212 213 213 216 222 226 226 230 239 247 252 258 276 267 271 274 277
319 280 251 209 241 250 247 242 237 230 241 270 242 238 235 232 225 223 216 213 213 208 209 209 205 210 209 210 210 208 207 208 208 208 212 214 219 224 230 230 238 248 257 267 268 255 267 262 264
2 342 254 221 213 248 145 253 261 236 291 319 328 288 252 236 228 223 215 209 208 204 205 204 203 206 207 210 211 214 216 213 211 212 215 211 213 216 222 226 233 240 251 258 260 253 263 263 262
342 335 338 269 266 309 171 244 172 158 2 27 5 352 338 290 241 228 218 209 204 205 201 198 200 204 206 209 212 215 219 217 216 219 217 218 219 221 226 228 233 239 248 251 252 249 253 261 262
80 195 357 281 230 270 249 267 270 356 16 3 359 359 355 340 311 247 230 217 207 203 202 200 197 202 204 208 212 215 217 217 217 217 224 227 229 227 230 233 235 237 242 245 246 247 255 262 264
329 8 221 189 256 246 233 269 247 8 358 351 350 345 342 334 319 309 239 221 212 207 202 203 203 199 203 207 209 212 215 218 219 222 225 224 230 233 227 234 236 235 241 241 241 245 255 255 255
211 171 137 292 275 272 285 243 146 30 356 338 334 333 333 332 329 319 266 224 215 210 206 205 206 203 203 202 206 208 213 216 219 221 223 227 231 231 231 236 238 240 241 241 240 246 249 250 258
234 94 65 257 189 252 289 261 299 339 338 337 330 330 330 329 328 327 290 224 210 209 206 205 204 204 201 203 204 207 211 214 216 219 222 223 227 230 234 236 239 238 241 240 237 241 244 247 250